Content
SEND FEEDBACK

Daily
Averages
Monthly
Summary
Greece

MITILINI, GREECE


Home > Europe > Greece
Elevation: 16 feet     Latitude: 39 04N     Longitude: 026 36E

WEATHER
 
SELECT A DAY
Number of Records: 89,534;   Date Range: 7/9/96 - 9/1/14
 
SHARE

PRINT THIS DATA

[ ← Previous Day ]
WEATHER ALMANAC - MARCH 29, 2014
[ Next Day → ]
[ °C ]   °F
Weather ElementAverageHighLow
Temperature58.5 °F66.2 °F (1:50 pm)50 °F (1:50 am)
Dewpoint45.6 °F52 °F (11:00 am)35.6 °F (7:50 pm)
Humidity62 %87 % (3:50 am)32 % (8:00 pm)
Barometer29.95 in30.09 in (11:00 pm)29.86 in (5:50 am)
Wind Speed9.4 mph16.1 mph (2:20 pm)
Wind Gust28.8 mph (9:50 pm)
Weather ElementAverage
Visibility6.2 mi
Wind DirectionS (176.7 °)

Weather ElementTotal
Precipitation---
Heating Degree Days6.9 (Base 65)
Growing Degree Days8.1 (Base 50)
Averaged from 50 records on March 29, 2014
WEATHER CONDITIONS BREAKOUT
WIND DIRECTION BREAKOUT
WEATHER BY HOUR - MARCH 29, 2014
[ °C ]   °F
Local TimeTemperatureDewpointHumidityBarometerVisibilityWind DirectionWind SpeedGust SpeedPrecipitationEventsConditions
1:50 AM50.0 °F44.6 °F82 %29.89 inCalmClear
2:00 AM51.0 °F45.0 °F72 %29.89 in6.0 miCalm
2:50 AM50.0 °F44.6 °F82 %29.89 inWSW (250°)5.8 mphClear
3:50 AM50.0 °F46.4 °F87 %29.89 in6.2 miVariable3.5 mphScattered Clouds
4:20 AM51.8 °F46.4 °F82 %29.89 in6.2 miVariable3.5 mphScattered Clouds
4:50 AM55.4 °F50.0 °F82 %29.89 in6.2 miCalmMostly Cloudy
5:00 AM55.0 °F49.0 °F74 %29.88 in6.0 miCalmPartly Cloudy
5:20 AM55.4 °F50.0 °F82 %29.89 in6.2 miWNW (300°)4.6 mphMostly Cloudy
5:50 AM53.6 °F48.2 °F82 %29.86 in6.2 miNW (310°)4.6 mphScattered Clouds
6:20 AM53.6 °F48.2 °F82 %29.86 in6.2 miWNW (300°)4.6 mphScattered Clouds
6:50 AM53.6 °F46.4 °F77 %29.89 in6.2 miNW (310°)4.6 mphScattered Clouds
7:20 AM55.4 °F46.4 °F72 %29.89 in6.2 miNW (310°)4.6 mphScattered Clouds
7:50 AM57.2 °F48.2 °F72 %29.89 in6.2 miNNW (340°)10.4 mphScattered Clouds
8:00 AM57.0 °F48.0 °F65 %29.90 in6.0 miNNW (340°)10.4 mphScattered Clouds
8:20 AM59.0 °F48.2 °F67 %29.89 in6.2 miNNW (330°)8.1 mphScattered Clouds
8:50 AM59.0 °F50.0 °F72 %29.89 in6.2 miNNW (330°)8.1 mphScattered Clouds
9:20 AM59.0 °F50.0 °F72 %29.89 in6.2 miNNW (330°)8.1 mphScattered Clouds
9:50 AM60.8 °F50.0 °F68 %29.92 in6.2 miNorth (360°)5.8 mphScattered Clouds
10:20 AM62.6 °F50.0 °F63 %29.92 in6.2 miNNW (340°)4.6 mphScattered Clouds
10:50 AM64.4 °F51.8 °F64 %29.92 in6.2 miNW (320°)9.2 mphScattered Clouds
11:00 AM64.0 °F52.0 °F55 %29.93 in6.0 miNW (320°)9.2 mphScattered Clouds
11:20 AM64.4 °F51.8 °F64 %29.92 in6.2 miNW (320°)11.5 mphScattered Clouds
11:50 AM64.4 °F50.0 °F59 %29.95 in6.2 miNW (320°)11.5 mphScattered Clouds
12:20 PM64.4 °F50.0 °F59 %29.95 in6.2 miNorth (360°)10.4 mphScattered Clouds
12:50 PM64.4 °F50.0 °F59 %29.95 in6.2 miNorth (10°)9.2 mphScattered Clouds
1:20 PM64.4 °F50.0 °F59 %29.95 in6.2 miNorth (350°)9.2 mphScattered Clouds
1:50 PM66.2 °F50.0 °F56 %29.95 in6.2 miNNW (340°)10.4 mphScattered Clouds
2:00 PM65.0 °F49.0 °F46 %29.96 in6.0 miNNW (340°)10.4 mphScattered Clouds
2:20 PM66.2 °F50.0 °F56 %29.95 in6.2 miNNW (330°)16.1 mphScattered Clouds
2:50 PM64.4 °F50.0 °F59 %29.95 in6.2 miNNW (340°)15.0 mphScattered Clouds
3:20 PM64.4 °F50.0 °F59 %29.98 in6.2 miNorth (10°)11.5 mphScattered Clouds
3:50 PM60.8 °F48.2 °F63 %29.98 in6.2 miNNE (20°)12.7 mphScattered Clouds
4:20 PM60.8 °F48.2 °F63 %29.98 in6.2 miNorth (10°)11.5 mphPartly Cloudy
4:50 PM60.8 °F44.6 °F55 %29.98 in6.2 miNorth (10°)11.5 mphPartly Cloudy
5:00 PM60.0 °F45.0 °F48 %29.99 in7.0 miNorth (10°)11.5 mphScattered Clouds
5:20 PM60.8 °F44.6 °F55 %29.98 in6.2 miNorth (10°)13.8 mph26.5 mphPartly Cloudy
5:50 PM60.8 °F42.8 °F52 %29.98 in6.2 miNorth (360°)13.8 mphPartly Cloudy
6:20 PM59.0 °F42.8 °F55 %30.01 inNNE (20°)12.7 mphClear
6:50 PM59.0 °F39.2 °F48 %30.01 inNorth (360°)10.4 mphClear
7:20 PM59.0 °F39.2 °F48 %30.01 inNorth (10°)10.4 mphClear
7:50 PM57.2 °F35.6 °F44 %30.01 inNNE (20°)11.5 mphClear
8:00 PM58.0 °F36.0 °F32 %30.02 in7.0 miNNE (20°)11.5 mph
8:20 PM57.2 °F35.6 °F44 %30.04 inNNE (20°)15.0 mphClear
8:50 PM57.2 °F35.6 °F44 %30.04 inNNE (20°)11.5 mphClear
9:20 PM57.2 °F35.6 °F44 %30.06 inNNE (20°)15.0 mphClear
9:50 PM55.4 °F39.2 °F54 %30.06 inNNE (20°)16.1 mph28.8 mphClear
10:20 PM55.4 °F39.2 °F54 %30.06 in6.2 miNorth (10°)13.8 mphPartly Cloudy
10:50 PM53.6 °F39.2 °F58 %30.06 in6.2 miNorth (10°)15.0 mphPartly Cloudy
11:00 PM53.0 °F40.0 °F50 %30.09 in6.0 miNorth (10°)15.0 mphScattered Clouds
11:50 PM51.8 °F37.4 °F58 %30.09 in6.2 miNorth (10°)13.8 mphPartly Cloudy
Hourly data recorded from LGMT, located miles away from Mitilini, Greece







STORIES FROM OUR PARTNERS